Simultaneous Nadir Overpasses (SNOs) Predictions

Prediction of SNOs between NOAA-20 and PACE Satellite Orbit:

Table of predicted SNOs for the next 14.0 days since TLE Epoch: 11/16/2024
Index Date (NOAA-20) Time (NOAA-20) Lat,Lon (NOAA-20) SZA (NOAA-20 ) Date (PACE) Time (PACE) Lat,Lon (PACE) SZA (PACE ) Distance(km) Time Diff (sec)
1 11/17/2024 20:06:49 -80.40, 14.76 78.27 11/17/2024 20:08:02 -80.48, 15.25 78.29 12.67 73
2 11/17/2024 20:57:09 79.67,-170.24 100.39 11/17/2024 20:56:48 79.68,-170.39 100.42 3.08 21
3 11/20/2024 00:32:50 -79.78, -45.11 78.93 11/20/2024 00:32:50 -79.77, -45.05 78.94 1.30 0
4 11/22/2024 04:08:31 79.85, 80.29 101.69 11/22/2024 04:08:51 79.84, 80.42 101.66 2.62 20
5 11/22/2024 04:58:40 -78.64,-103.19 80.18 11/22/2024 04:57:27 -78.55,-103.85 80.19 17.63 73
6 11/24/2024 07:44:10 -79.90,-154.06 77.78 11/24/2024 07:44:50 -79.89,-153.91 77.82 3.10 40
7 11/24/2024 08:34:47 79.64, 15.62 101.79 11/24/2024 08:33:52 79.64, 15.64 101.81 0.41 55
8 11/26/2024 11:19:49 79.92, -28.24 102.70 11/26/2024 11:20:48 79.92, -28.14 102.66 2.12 59
9 11/26/2024 12:10:27 -79.72, 140.97 77.65 11/26/2024 12:09:51 -79.72, 141.08 77.65 2.09 36



Historial Predications of SNOs between NOAA-20 and PACE
